This is the latest recevied weather packets stored in our database for station/object TG8ARF-18. If no packets are shown the sender has not sent any weather packets the latest 10 day(s).
| Time | Temp. | Humidity | Pressure | Rain* | Wind** | Luminosity | Snow |
|---|---|---|---|---|---|---|---|
| 1778278659 | 17.78° C | 83% | 1013 hPa | 0.25 mm | - | - | - |
| 1778278058 | 17.78° C | 83% | 1013 hPa | 0.25 mm | - | - | - |
| 1778277458 | 20° C | 84% | 1013 hPa | 0.25 mm | - | - | - |
| 1778276857 | 18.89° C | 84% | 1013 hPa | 0 mm | - | - | - |
| 1778276257 | 17.78° C | 84% | 1013 hPa | 0.25 mm | - | - | - |
| 1778275656 | 20° C | 81% | 1013 hPa | 0.25 mm | - | - | - |
| 1778275056 | 18.89° C | 81% | 1013 hPa | 0 mm | - | - | - |
| 1778274455 | 17.78° C | 81% | 1013 hPa | 0.25 mm | - | - | - |
| 1778273855 | 20.56° C | 82% | 1013 hPa | 0.25 mm | - | - | - |
| 1778273254 | 19.44° C | 82% | 1013 hPa | 0 mm | - | - | - |
| 1778272653 | 18.33° C | 82% | 1013 hPa | 0.25 mm | - | - | - |
| 1778272053 | 21.67° C | 73% | 1013 hPa | 0.25 mm | - | - | - |
| 1778271452 | 20.56° C | 73% | 1013 hPa | 0 mm | - | - | - |
| 1778270851 | 19.44° C | 73% | 1013 hPa | 0.25 mm | - | - | - |
| 1778270251 | 21.67° C | 72% | 1013 hPa | 0.25 mm | - | - | - |
| 1778269650 | 20.56° C | 72% | 1013 hPa | 0 mm | - | - | - |
| 1778269050 | 19.44° C | 72% | 1013 hPa | 0.25 mm | - | - | - |
| 1778268449 | 23.89° C | 62% | 1013 hPa | 0 mm | - | - | - |
| 1778267848 | 22.78° C | 62% | 1013 hPa | 0 mm | - | - | - |
| 1778267248 | 21.67° C | 62% | 1013 hPa | 0 mm | - | - | - |
| 1778266646 | 20.56° C | 62% | 1013 hPa | 0 mm | - | - | - |
| 1778266046 | 19.44° C | 62% | 1013 hPa | 0 mm | - | - | - |
| 1778265445 | 26.67° C | 64% | 1013 hPa | 0 mm | - | - | - |
| 1778264844 | 26.67° C | 60% | 1014 hPa | 0 mm | - | - | - |
| 1778264243 | 26.11° C | 60% | 1014 hPa | 0 mm | - | - | - |
* Rain latest hour (hover to see other rain measurements)
** Current wind speed in m/s (hover to see current wind gust speed)